Simultaneous Nadir Overpasses (SNOs) Predictions

Prediction of SNOs between LANDSAT-8 and NPP Satellite Orbit:

Table of predicted SNOs for the next 14.0 days since TLE Epoch: 6/1/2024
Index Date (LANDSAT-8) Time (LANDSAT-8) Lat,Lon (LANDSAT-8) SZA (LANDSAT-8 ) Date (NPP) Time (NPP) Lat,Lon (NPP) SZA (NPP ) Distance(km) Time Diff (sec)
1 06/02/2024 06:07:59 70.20, 84.39 47.87 06/02/2024 06:07:14 70.19, 84.37 47.87 0.95 45
2 06/02/2024 06:57:29 -70.09,-108.14 132.24 06/02/2024 06:57:56 -70.10,-108.17 132.23 1.53 27
3 06/04/2024 22:24:29 70.17,-159.77 47.53 06/04/2024 22:24:03 70.16,-159.79 47.53 1.22 26
4 06/04/2024 23:13:59 -70.07, 7.71 132.58 06/04/2024 23:14:45 -70.07, 7.67 132.58 1.38 46
5 06/07/2024 13:51:27 -70.56, 149.04 132.35 06/07/2024 13:50:16 -70.61, 147.98 132.27 39.19 71
6 06/07/2024 14:41:00 70.13, -43.96 47.23 06/07/2024 14:40:53 70.14, -43.97 47.24 1.56 7
7 06/07/2024 15:30:30 -70.02, 123.53 132.88 06/07/2024 15:31:35 -70.04, 123.50 132.86 2.36 65
8 06/10/2024 06:08:03 -70.23, -95.57 132.89 06/10/2024 06:06:59 -70.22, -95.62 132.89 2.09 64
9 06/10/2024 06:57:30 70.12, 71.91 47.01 06/10/2024 06:57:43 70.13, 71.84 47.01 2.72 13
10 06/10/2024 07:47:07 -69.64,-121.13 133.47 06/10/2024 07:48:17 -69.60,-120.06 133.54 41.70 70
11 06/12/2024 22:24:34 -70.16, 20.20 133.13 06/12/2024 22:23:48 -70.16, 20.27 133.12 2.48 46
12 06/12/2024 23:14:01 70.04,-172.31 46.76 06/12/2024 23:14:32 70.06,-172.27 46.78 3.00 31



Historial Predications of SNOs between LANDSAT-8 and NPP
